Location: Grange Verzio
(44.5000°N, 6.9833°E)
Time: 18:18:59
(UTC+00:00)

Cosmos 2219 Rocket - Pass Details

Date: 02 October 2023
Orbit: 826 x 848 km, 71.0° (Epoch: 08 December)

Event Time Altitude Azimuth Distance (km) Brightness Sun altitude
Rises 01:39:13 0° 341° (NNW) 3,396 5.6 -39.0°
Reaches altitude 10° 01:42:01 10° 353° (N) 2,462 4.9 -38.6°
Maximum altitude 01:46:51 28° 52° (NE) 1,523 3.9 -38.0°
Drops below altitude 10° 01:51:41 10° 111° (ESE) 2,462 4.9 -37.3°
Sets 01:54:28 0° 123° (ESE) 3,396 5.5 -37.0°
